Location: Kott?ru
(16.6209°N, 80.6208°E)
Time: 13:53:33
(UTC+00:00)

Cosmos 724 - Pass Details

Date: 18 September 2020
Orbit: 853 x 942 km, 65.6° (Epoch: 31 October)

Event Time Altitude Azimuth Distance (km) Brightness Sun altitude
Rises 13:03:23 0° 339° (NNW) 3,569 7.8 -7.2°
Reaches altitude 10° 13:05:54 10° 340° (NNW) 2,634 7.1 -7.8°
Maximum altitude 13:12:04 83° 68° (ENE) 948 4.4 -9.3°
Drops below altitude 10° 13:18:17 10° 156° (SSE) 2,647 6.5 -10.7°
Sets 13:20:48 0° 156° (SSE) 3,588 7.2 -11.4°
